Cut Bank, MT

7:44 PM MDT on October 21, 2019 (GMT -0600)
Cut Bank Municipal

Weather History for KCTB - August, 2019

Change the Weather History Date:

Friday, August 30, 2019

  Actual Average Record
Temperature  
Mean Temperature 61 °F 60 °F  
Max Temperature 79 °F 75 °F 96 °F (1921)
Min Temperature 43 °F 45 °F 32 °F (2003)
Degree Days  
Heating Degree Days 4 6  
Month to date heating degree days 80 102  
Since 1 June heating degree days 395 421  
Since 1 July heating degree days 173 188  
Cooling Degree Days 0 1  
Month to date cooling degree days 51 64  
Year to date cooling degree days 104 153  
Since 1 June cooling degree days 104 151  
Growing Degree Days 11 (Base 50)    
Moisture  
Dew Point 43 °F    
Average Humidity 60    
Maximum Humidity 90    
Minimum Humidity 24    
Precipitation  
Precipitation 0.04 in 0.04 in 0.72 in (1971)
Month to date precipitation 1.42 1.15  
Year to date precipitation 8.83 8.62  
Snow  
Snow - - - ()
Snow Depth 0.00 in    
Sea Level Pressure  
Sea Level Pressure 30.03 in    
Wind  
Wind Speed 5 mph ()    
Max Wind Speed 25 mph    
Max Gust Speed 32 mph    
Visibility 10.0 miles    
Events Rain    
T = Trace of Precipitation, MM = Missing Value Source: Averaged Metar Reports

Daily Weather History Graph

Daily Weather History Graph

Search for Another Location

Airport or City:

Astronomy

Aug. 30, 2019 Rise Set
Actual Time 6:43 AM MDT 8:15 PM MDT
Civil Twilight 6:10 AM MDT 8:48 PM MDT
Nautical Twilight 5:30 AM MDT 9:28 PM MDT
Astronomical Twilight 4:47 AM MDT 10:11 PM MDT
Moon 6:45 AM MDT (8/30) 8:54 PM MDT (8/30)
Length of Visible Light 14h 37m
Length of Day
13h 31m
New Moon, 0% of the Moon is Illuminated
Aug 30
New Moon
Sep 5
First Quarter
Sep 13
Full
Sep 21
Last Quarter
Sep 28
New

Hourly Weather History & Observations

Time (MDT) Temp. Windchill Dew Point Humidity Pressure Visibility Wind Dir Wind Speed Gust Speed Precip Events Conditions
12:56 AM 55.0 °F - 39.9 °F 57% 29.99 in 10.0 mi ENE 5.8 mph - N/A   Clear
1:56 AM 54.0 °F - 37.0 °F 53% 30.00 in 10.0 mi ENE 3.5 mph - N/A   Clear
2:56 AM 48.0 °F - 39.0 °F 71% 30.02 in 10.0 mi NNW 8.1 mph - N/A   Clear
3:56 AM 50.0 °F - 39.9 °F 68% 30.03 in 10.0 mi NNW 11.5 mph - N/A   Clear
4:56 AM 46.9 °F - 39.0 °F 74% 30.03 in 10.0 mi North 5.8 mph - N/A   Clear
5:56 AM 43.0 °F 41.3 °F 37.9 °F 82% 30.03 in 10.0 mi NNW 3.5 mph - N/A   Clear
6:56 AM 45.0 °F 43.5 °F 39.0 °F 80% 30.04 in 10.0 mi WSW 3.5 mph - N/A   Clear
7:56 AM 50.0 °F - 42.1 °F 74% 30.03 in 10.0 mi Calm Calm - N/A   Clear
8:56 AM 55.9 °F - 42.1 °F 60% 30.03 in 10.0 mi NNW 5.8 mph - N/A   Clear
9:56 AM 60.1 °F - 41.0 °F 49% 30.03 in 10.0 mi Calm Calm - N/A   Clear
10:56 AM 64.9 °F - 41.0 °F 42% 30.01 in 10.0 mi Calm Calm - N/A   Clear
11:56 AM 69.1 °F - 39.9 °F 35% 30.00 in 10.0 mi South 4.6 mph - N/A   Clear
12:56 PM 73.0 °F - 41.0 °F 31% 29.98 in 10.0 mi ESE 5.8 mph - N/A   Clear
1:56 PM 77.0 °F - 41.0 °F 28% 29.97 in 10.0 mi South 6.9 mph - N/A   Clear
2:56 PM 78.1 °F - 39.0 °F 25% 29.96 in 10.0 mi Variable 3.5 mph - N/A   Clear
3:56 PM 77.0 °F - 37.9 °F 24% 29.95 in 10.0 mi NE 4.6 mph - N/A   Mostly Cloudy
5:56 PM 71.1 °F - 43.0 °F 36% 30.00 in 10.0 mi North 12.7 mph - N/A   Mostly Cloudy
6:56 PM 64.9 °F - 48.9 °F 56% 30.06 in 9.0 mi NW 19.6 mph - 0.00 in Rain Light Rain
7:56 PM 57.9 °F - 54.0 °F 87% 30.11 in 10.0 mi NW 11.5 mph - 0.04 in   Overcast
8:56 PM 57.9 °F - 54.0 °F 87% 30.09 in 10.0 mi NNW 11.5 mph - N/A   Overcast
9:56 PM 57.0 °F - 54.0 °F 89% 30.08 in 10.0 mi NNW 6.9 mph - 0.00 in   Overcast
10:56 PM 55.9 °F - 53.1 °F 90% 30.07 in 10.0 mi West 5.8 mph - N/A   Overcast
11:56 PM 54.0 °F - 51.1 °F 90% 30.07 in 10.0 mi West 8.1 mph - N/A   Clear